Location: Unspecified
(45.3712°N, 0.6436°E)
Time: 14:13:58
(UTC+01:00)

ISS - Visible Passes

Search period start: 14 December 2018 00:00
Search period end: 24 December 2018 00:00
Orbit: 401 x 408 km, 51.6° (Epoch: 15 December)

Date Brightness Start Highest point End Pass type
(mag) Time Alt. Az. Time Alt. Az. Time Alt. Az.
14 Dec -0.5 18:50:32 10° WSW 18:51:57 12° SW 18:53:22 10° SSW visible
15 Dec -0.9 17:57:27 10° W 18:00:01 21° SW 18:02:35 10° S visible
21 Dec -0.4 07:55:02 10° SSE 07:56:50 14° SE 07:58:37 10° E visible
23 Dec -1.6 07:45:38 10° SSW 07:48:32 29° SE 07:51:26 10° ENE visible
